Skip Page Navigation
NASA JPL Caltech
NASA Logo - Jet Propulsion Laboratory + View the NASA Portal
+ Center for Near-Earth Object Studies
JPL Home Earth Solar System Stars & Galaxies Technology
JPL Solar System Dynamics
BODIES ORBITS EPHEMERIDES TOOLS PHYSICAL DATA DISCOVERY FAQ SITE MAP
JPL Small-Body Database Browser
Search: [ help ]  
277651 (2006 BW130)
Classification: Main-belt Asteroid          SPK-ID: 2277651
Ephemeris | Orbit Diagram | Orbital Elements | Mission Design | Physical Parameters | Discovery Circumstances ]

[ show orbit diagram ]
Orbital Elements at Epoch 2459000.5 (2020-May-31.0) TDB
Reference: JPL 15 (heliocentric ecliptic J2000)
 Element Value Uncertainty (1-sigma)   Units 
e .05982408129526819 5.3264e-08  
a 2.733978890738547 2.4438e-08 au
q 2.570421115319458 1.5059e-07 au
i 7.721219505646323 5.8973e-06 deg
node 155.5207401933103 3.4745e-05 deg
peri 181.8785447001011 5.253e-05 deg
M 239.575175498912 3.9552e-05 deg
tp 2459552.837695623757
(2021-Dec-04.33769562)
0.0001817 TDB
period 1651.167616380926
4.52
2.2139e-05
6.061e-08
d
yr
n .2180275318074962 2.9233e-09 deg/d
Q 2.897536666157637 2.59e-08 au
  Orbit Determination Parameters
   # obs. used (total)      257  
   data-arc span      5209 days (14.26 yr)  
   first obs. used      2006-01-22  
   last obs. used      2020-04-27  
   planetary ephem.      DE431  
   SB-pert. ephem.      SB431-N16  
   condition code      0  
   norm. resid. RMS      .59291  
   source      ORB  
   producer      Otto Matic  
   solution date      2020-May-21 16:27:56  

Additional Information
 Earth MOID = 1.56084 au 
 Jupiter MOID = 2.35655 au 
 T_jup = 3.337 
[ show covariance matrix ]

Ephemeris | Orbit Diagram | Orbital Elements | Mission Design | Physical Parameters | Discovery Circumstances ]

Physical Parameter Table
Parameter Symbol Value Units Sigma Reference Notes
absolute magnitude H 16.2   n/a MPO423066  

277651 (2006 BW130)          Discovered 2006-Jan-26 by Mt. Lemmon Survey at Mount Lemmon
Reference: 20110517/Numbers.arcLast Updated: 2011-05-20
Ephemeris | Orbit Diagram | Orbital Elements | Mission Design | Physical Parameters | Discovery Circumstances ]
ABOUT SSD CREDITS/AWARDS PRIVACY/COPYRIGHT GLOSSARY LINKS
FirstGov 2020-Oct-26 08:03 UT
(server date/time)  
NASA Home Page
Site Manager:   Ryan S. Park
Webmaster  Alan B. Chamberlin